This is the latest recevied weather packets stored in our database for station/object AI5YA-13. If no packets are shown the sender has not sent any weather packets the latest 1 day(s).
| Time | Temp. | Humidity | Pressure | Rain* | Wind** | Luminosity | Snow |
|---|---|---|---|---|---|---|---|
| 1778022625 | 25° C | 30% | 1009.1 hPa | 0 mm | 0 m/s | 84 W/m² | - |
| 1778022322 | 25.56° C | 30% | 1008.9 hPa | 0 mm | 0 m/s | 89 W/m² | - |
| 1778022018 | 25.56° C | 30% | 1009.1 hPa | 0 mm | 0 m/s | 95 W/m² | - |
| 1778021715 | 25.56° C | 29% | 1009.1 hPa | 0 mm | 0 m/s | 105 W/m² | - |
| 1778021411 | 25.56° C | 30% | 1009.1 hPa | 0 mm | 0 m/s | 96 W/m² | - |
| 1778021108 | 25.56° C | 30% | 1009.2 hPa | 0 mm | 0 m/s | 89 W/m² | - |
| 1778020805 | 25.56° C | 30% | 1009.1 hPa | 0 mm | 0 m/s | 89 W/m² | - |
| 1778020502 | 25.56° C | 31% | 1009.1 hPa | 0 mm | 0 m/s | 74 W/m² | - |
| 1778020198 | 25.56° C | 31% | 1009.3 hPa | 0 mm | 0 m/s | 82 W/m² | - |
| 1778019895 | 25.56° C | 31% | 1009 hPa | 0 mm | 0 m/s | 60 W/m² | - |
| 1778019590 | 25.56° C | 31% | 1009.1 hPa | 0 mm | 0 m/s | 63 W/m² | - |
| 1778019288 | 25.56° C | 31% | 1009 hPa | 0 mm | 0 m/s | 66 W/m² | - |
| 1778018985 | 25.56° C | 30% | 1009.1 hPa | 0 mm | 0 m/s | 69 W/m² | - |
| 1778018682 | 25.56° C | 29% | 1009.1 hPa | 0 mm | 0 m/s | 78 W/m² | - |
| 1778018380 | 26.11° C | 28% | 1009.1 hPa | 0 mm | 0 m/s | 91 W/m² | - |
| 1778018078 | 26.11° C | 28% | 1009.1 hPa | 0 mm | 0 m/s | 131 W/m² | - |
| 1778017775 | 26.11° C | 28% | 1009.2 hPa | 0 mm | 0 m/s | 134 W/m² | - |
| 1778017473 | 26.11° C | 28% | 1009.7 hPa | 0 mm | 0 m/s | 143 W/m² | - |
| 1778017170 | 26.11° C | 28% | 1009.6 hPa | 0 mm | 0 m/s | 182 W/m² | - |
| 1778016867 | 26.67° C | 27% | 1009.5 hPa | 0 mm | 0 m/s | 186 W/m² | - |
| 1778016563 | 26.67° C | 28% | 1009.3 hPa | 0 mm | 0 m/s | 212 W/m² | - |
| 1778016261 | 26.67° C | 28% | 1009.2 hPa | 0 mm | 0 m/s | 224 W/m² | - |
| 1778015957 | 26.67° C | 27% | 1009.2 hPa | 0 mm | 0 m/s | 197 W/m² | - |
| 1778015655 | 26.67° C | 27% | 1009.7 hPa | 0 mm | 0 m/s | 211 W/m² | - |
| 1778015350 | 26.67° C | 28% | 1009.7 hPa | 0 mm | 0 m/s | 203 W/m² | - |
* Rain latest hour (hover to see other rain measurements)
** Current wind speed in m/s (hover to see current wind gust speed)